Lexington Weather

Lexington, Massachusetts, USA

68°F
9/23/2021 5:21am 
  • Lexington Conditions: Mostly cloudy
  • Temperature: 67.6°F / 19.8°CWarmer 0.9°F than last hour.
  • Dew Point: 66.7°FIncreased 1.2°Fsince last hour.
  • Relative Humidity: 97%Increased 1.0% since last hour.
  • Wind: Calm, 10-min avg: Calm, gust: 3 mph
  • Barometer: 30.03 in Steady
  • Visibility: 10 miles
  • Rain Today: 0.00 in
  •   

Regional Weather Roundup
for Boston / Norton, MA

        
000
ASUS41 KBOX 191805
RWRBOX

REGIONAL WEATHER ROUNDUP
NATIONAL WEATHER SERVICE BOSTON/NORTON MA
200 PM EDT SUN SEP 19 2021

NOTE:  "FAIR" INDICATES FEW OR NO CLOUDS BELOW 12,000 FEET WITH NO 
SIGNIFICANT WEATHER AND/OR OBSTRUCTIONS TO VISIBILITY.

MAZALL-191900-
EASTERN MASSACHUSETTS
  
CITY           SKY/WX    TMP DP  RH WIND       PRES   REMARKS
BOSTON         MOSUNNY   71  51  49 E12       30.15                   
6HR MIN TEMP:  65; 6HR MAX TEMP:  72; 6HR PCP: TRACE;                

BEVERLY        SUNNY     71  54  54 VRB7      30.14F                  
LAWRENCE       SUNNY     72  51  47 VRB5      30.17F                  
BEDFORD        SUNNY     73  54  51 N7        30.15S                  
BLUE HILL      NOT AVBL                                               
NORWOOD        SUNNY     72  51  47 NE5       30.15F                  
MARSHFIELD     SUNNY     68  50  52 VRB7G15   30.15S                  
PLYMOUTH       SUNNY     70  48  45 N17G25    30.15S                  
TAUNTON        SUNNY     71  49  45 VRB6      30.15S                  
NEW BEDFORD    SUNNY     72  49  44 N9G21     30.14S                  
$$

MAZALL-191900-
CAPE COD AND THE ISLANDS
  
CITY           SKY/WX    TMP DP  RH WIND       PRES   REMARKS
FALMOUTH       SUNNY     68  50  52 N14G21    30.13F                  
HYANNIS        SUNNY     68  55  63 N15G25    30.11S                  
CHATHAM        SUNNY     69  52  54 NE9G22    30.13R                  
PROVINCETOWN   SUNNY     67  56  67 N14       30.15S                  
NANTUCKET      SUNNY     72  53  51 N22       30.11S                  
MARTHAS VNYRD  SUNNY     72  50  45 N17G28    30.12F                  
$$
 
MAZALL-191900-
CENTRAL AND WESTERN MASSACHUSETTS
  
CITY           SKY/WX    TMP DP  RH WIND       PRES   REMARKS
WORCESTER      SUNNY     69  50  50 N7        30.18F                  
6HR MIN TEMP:  60; 6HR MAX TEMP:  70;                                

FITCHBURG      SUNNY     74  46  36 N8        30.17F                  
ORANGE         SUNNY     73  47  39 NW8       30.17F                  
SPRINGFIELD    MOSUNNY   74  49  41 N6        30.15F                  
WESTFIELD      SUNNY     74  48  39 NE9G18    30.17F                  
NORTH ADAMS    SUNNY     70  54  56 W9        30.18F                  
PITTSFIELD     SUNNY     70  48  45 VRB3      30.18F                  
$$
 
RIZALL-191900-
RHODE ISLAND
  
CITY           SKY/WX    TMP DP  RH WIND       PRES   REMARKS
PROVIDENCE     MOSUNNY   73  52  47 NE12      30.15F                  
6HR MIN TEMP:  65; 6HR MAX TEMP:  74;                                

NEWPORT        SUNNY     72  52  49 NE12      30.14F                  
BLOCK ISLAND   SUNNY     70  55  59 NE9G17    30.15F                  
SMITHFIELD     SUNNY     71  52  50 VRB5      30.16F                  
WESTERLY       PTSUNNY   71  54  54 N8        30.14F                  
$$
 
CTZALL-191900-
CONNECTICUT
  
CITY           SKY/WX    TMP DP  RH WIND       PRES   REMARKS
BRADLEY INTL   MOSUNNY   73  49  42 N10       30.16F                  
6HR MIN TEMP:  60; 6HR MAX TEMP:  74;                                

HARTFORD       MOSUNNY   75  50  41 N5G16     30.15F                  
BRIDGEPORT     SUNNY     76  47  35 NE13      30.16F                  
DANBURY        SUNNY     75  50  41 VRB6      30.18F                  
GROTON         MOSUNNY   76  55  48 N12       30.14S                  
NEW HAVEN      MOSUNNY   77  48  35 N15       30.16S                  
CHESTER        PTSUNNY   75  52  43 NE6       30.16F                  
MERIDEN        SUNNY     74  48  39 NE8       30.16F                  
WILLIMANTIC    SUNNY     72  49  44 VRB5      30.15F                  
OXFORD         MOSUNNY   71  49  45 N10       30.18F                  
$$

MEZ002-015-021-024-NHZ003-005-008-011-012-014-VTZ005-008-191900-
NORTHERN NEW ENGLAND
  
CITY           SKY/WX    TMP DP  RH WIND       PRES   REMARKS
PORTLAND ME    SUNNY     69  49  48 VRB7      30.14F                  
6HR MIN TEMP:  57; 6HR MAX TEMP:  70;                                

BANGOR ME      MOSUNNY   70  46  42 N17       30.12F                  
CONCORD NH     SUNNY     72  47  40 MISG      30.15F                  
MANCHESTER NH  MOSUNNY   74  47  38 NW8       30.14F                  
NASHUA NH      MOSUNNY   72  51  47 CALM      30.16F                  
PORTSMOUTH NH  MOSUNNY   73  42  33 N8        30.16F                  
JAFFREY NH     SUNNY     71  51  49 NW5       30.17F                  
KEENE NH       SUNNY     72  44  36 N16       30.17F                  
BURLINGTON VT  MOSUNNY   66  47  50 NW8       30.22F                  
MT. WASHINGTON MOSUNNY   48  25  40 N18         N/A                   
$$

NYZ052-076-191900-
EASTERN NEW YORK
  
CITY           SKY/WX    TMP DP  RH WIND       PRES   REMARKS
ALBANY         MOSUNNY   67  50  54 N12       30.21F                  
6HR MIN TEMP:  53; 6HR MAX TEMP:  67;                                

NEW YORK CITY  MOSUNNY   76  50  40 NE8       30.15F                  
6HR MIN TEMP:  67; 6HR MAX TEMP:  76;                                

$$
 
ANZALL-191900-
MARINE OBSERVATIONS
  
STATION/POSITION TIME  TEMP    WIND        PRES    VSBY  WAVE
                       AIR SEA DIR/SP/G                  HT/PER
                 (UTC) (F)     (DEG/KT/KT) (MB)    (MI)  (FT/S)
BOSTON BUOY      1740      66  360/ 14/ 17 1021.4S
BUZZARDS BAY     1700           30/ 19/ 21 1021.4R
NANTUCKET SOUND  1740   67 72  360/ 17/ 21 1020.0R
MASS BAY-STELLWA 1704   64      10/ 14/ 16 1020.5F  1 7/8  6/ 6
ISLE OF SHOALS   1700   64      40/  7/  8 1020.7S
S OF BLOCK IS    1726      71                N/A           4/ 4
$$

......................KEY.........................
  SKY/WX - SKY CONDITION/PRESENT WEATHER
  TMP    - TEMPERATURE IN FAHRENHEIT
  DWPT   - DEWPOINT IN FAHRENHEIT
  RH     - RELATIVE HUMIDITY IN PERCENT
  WIND   - DIRECTION AND SPEED IN MPH
  PRES   - MEAN SEA LEVEL PRESSURE IN INCHES OF HG
  WCI    - WIND CHILL INDEX
  VSB    - VISIBILITY IN MILES
  HX     - HEAT INDEX
  TC     - TEMPERATURE IN CELSIUS
  VRB    - VARIABLE WIND DIRECTION
  N/A    - NOT AVAILABLE
  
      

Other recent Regional Weather Roundups

Thu Sep 23, 5:04am

Thu Sep 23, 4:04am

Thu Sep 23, 3:04am

Thu Sep 23, 2:04am

Thu Sep 23, 1:04am

Thu Sep 23, 12:04am

Wed Sep 22, 11:04pm

Wed Sep 22, 10:04pm

Wed Sep 22, 9:04pm

Wed Sep 22, 8:04pm

Wed Sep 22, 7:04pm

Wed Sep 22, 6:04pm

Wed Sep 22, 5:04pm

Wed Sep 22, 4:04pm

Wed Sep 22, 3:04pm

Wed Sep 22, 2:04pm

Wed Sep 22, 1:04pm

Wed Sep 22, 12:05pm

Wed Sep 22, 11:04am

Wed Sep 22, 10:04am

Wed Sep 22, 9:04am

Wed Sep 22, 8:04am

Wed Sep 22, 7:04am

Wed Sep 22, 6:04am

Wed Sep 22, 5:04am

Wed Sep 22, 4:04am

Wed Sep 22, 3:04am

Wed Sep 22, 2:04am

Wed Sep 22, 1:04am

Wed Sep 22, 12:04am

Tue Sep 21, 11:04pm

Tue Sep 21, 10:04pm

Tue Sep 21, 9:04pm

Tue Sep 21, 8:04pm

Tue Sep 21, 7:04pm

Tue Sep 21, 6:04pm

Tue Sep 21, 5:04pm

Tue Sep 21, 4:04pm

Tue Sep 21, 3:04pm

Tue Sep 21, 2:04pm

Tue Sep 21, 1:04pm

Tue Sep 21, 12:04pm

Tue Sep 21, 11:04am

Tue Sep 21, 10:04am

Tue Sep 21, 9:04am

Tue Sep 21, 8:04am

Tue Sep 21, 7:04am

Tue Sep 21, 6:04am

Tue Sep 21, 5:04am

Tue Sep 21, 4:04am

Tue Sep 21, 3:04am

Tue Sep 21, 2:04am

Tue Sep 21, 1:04am

Tue Sep 21, 12:04am

Mon Sep 20, 11:04pm

Mon Sep 20, 10:04pm

Mon Sep 20, 9:04pm

Mon Sep 20, 8:04pm

Mon Sep 20, 7:04pm

Mon Sep 20, 6:04pm

Mon Sep 20, 5:04pm

Mon Sep 20, 4:04pm

Mon Sep 20, 3:04pm

Mon Sep 20, 2:04pm

Mon Sep 20, 1:04pm

Mon Sep 20, 12:04pm

Mon Sep 20, 11:04am

Mon Sep 20, 10:04am

Mon Sep 20, 9:04am

Mon Sep 20, 7:04am

Mon Sep 20, 6:04am

Mon Sep 20, 5:04am

Mon Sep 20, 4:04am

Mon Sep 20, 3:04am

Mon Sep 20, 2:04am

Mon Sep 20, 1:04am

Mon Sep 20, 12:04am

Sun Sep 19, 11:04pm

Sun Sep 19, 10:04pm

Sun Sep 19, 9:04pm

Sun Sep 19, 8:04pm

Sun Sep 19, 7:04pm

Sun Sep 19, 6:04pm

Sun Sep 19, 5:04pm

Sun Sep 19, 4:04pm

Sun Sep 19, 3:04pm

Sun Sep 19, 1:04pm

Sun Sep 19, 12:04pm

Sun Sep 19, 11:04am

Sun Sep 19, 10:05am

Sun Sep 19, 9:04am

Sun Sep 19, 8:04am

Sun Sep 19, 7:04am

Sun Sep 19, 6:04am

Sun Sep 19, 5:04am

Sun Sep 19, 4:04am

Sun Sep 19, 3:04am

Sun Sep 19, 2:04am

Sun Sep 19, 1:04am

Sun Sep 19, 12:04am

Sat Sep 18, 11:05pm

Sat Sep 18, 10:04pm

Sat Sep 18, 9:04pm

Sat Sep 18, 8:04pm

Sat Sep 18, 7:04pm

Sat Sep 18, 6:04pm

Sat Sep 18, 5:04pm

Sat Sep 18, 4:04pm

Sat Sep 18, 3:04pm

Sat Sep 18, 2:04pm

Sat Sep 18, 1:04pm

Sat Sep 18, 12:04pm

Sat Sep 18, 11:04am

Sat Sep 18, 10:04am

Sat Sep 18, 9:04am

Sat Sep 18, 8:04am

Sat Sep 18, 7:04am

Sat Sep 18, 6:04am

Sat Sep 18, 5:04am

Sat Sep 18, 4:04am

Sat Sep 18, 3:04am

Sat Sep 18, 2:04am

Sat Sep 18, 1:04am

Sat Sep 18, 12:04am

Fri Sep 17, 11:04pm

Fri Sep 17, 10:04pm

Fri Sep 17, 9:04pm

Fri Sep 17, 8:04pm

Fri Sep 17, 7:04pm

Fri Sep 17, 6:04pm

Fri Sep 17, 5:04pm

Fri Sep 17, 4:04pm

Fri Sep 17, 3:04pm

Fri Sep 17, 2:04pm

Fri Sep 17, 1:04pm

Fri Sep 17, 12:05pm

Fri Sep 17, 11:04am

Fri Sep 17, 10:04am

Fri Sep 17, 9:04am

Fri Sep 17, 8:04am

Fri Sep 17, 7:04am

Fri Sep 17, 6:04am

Fri Sep 17, 5:04am

Fri Sep 17, 4:04am

Fri Sep 17, 3:04am

Fri Sep 17, 2:04am

Fri Sep 17, 1:04am

Fri Sep 17, 12:04am

Thu Sep 16, 11:04pm

Thu Sep 16, 10:04pm

Thu Sep 16, 9:04pm

Thu Sep 16, 8:04pm

Thu Sep 16, 7:04pm

Thu Sep 16, 6:04pm

Thu Sep 16, 5:04pm

Thu Sep 16, 4:04pm

Thu Sep 16, 3:04pm

Thu Sep 16, 2:04pm

Thu Sep 16, 1:05pm

Thu Sep 16, 12:04pm

Thu Sep 16, 11:05am

Thu Sep 16, 10:05am

Thu Sep 16, 9:04am

Thu Sep 16, 8:04am

Thu Sep 16, 7:04am

Thu Sep 16, 6:04am

Meta data:

ID: 7e060105-be73-4c90-abd4-24772a641fd1
Link: https://api.weather.gov/products/7e060105-be73-4c90-abd4-24772a641fd1